| time (UTC) | temp F | wind direction | speed knots | gust knots | rain 1hr in | rain 24hr in | rain mn in | humidity % | barometer mb |
| 20260510061204 | 72 | 140 | 0.9 | 1.7 | 0.00 | 0.00 | 0.00 | 80 | 1014.1 |
| 20260510060701 | 72 | 132 | 0.0 | 1.7 | 0.00 | 0.00 | 0.00 | 80 | 1013.6 |
| 20260510060157 | 72 | 109 | 0.0 | 0.9 | 0.00 | 0.00 | 0.00 | 80 | 1013.6 |
| 20260510055654 | 72 | 127 | 0.0 | 0.0 | 0.00 | 0.00 | 0.00 | 80 | 1013.6 |
| 20260510055152 | 72 | 120 | 0.0 | 0.0 | 0.00 | 0.00 | 0.00 | 80 | 1014.1 |
| 20260510054647 | 72 | 119 | 0.0 | 0.9 | 0.00 | 0.00 | 0.00 | 79 | 1014.1 |
| 20260510054143 | 72 | 153 | 0.0 | 0.9 | 0.00 | 0.00 | 0.00 | 80 | 1014.1 |
| 20260510053642 | 72 | 127 | 0.0 | 0.9 | 0.00 | 0.00 | 0.00 | 79 | 1013.6 |
| 20260510053139 | 72 | 130 | 0.0 | 0.9 | 0.00 | 0.00 | 0.00 | 79 | 1013.6 |
| 20260510052635 | 72 | 135 | 0.0 | 0.0 | 0.00 | 0.00 | 0.00 | 79 | 1013.6 |
| 20260510052131 | 72 | 127 | 0.0 | 0.0 | 0.00 | 0.00 | 0.00 | 79 | 1013.6 |
| 20260510051627 | 72 | 107 | 0.0 | 0.0 | 0.00 | 0.00 | 0.00 | 78 | 1013.6 |
| 20260510051124 | 72 | 140 | 0.0 | 0.0 | 0.00 | 0.00 | 0.00 | 78 | 1013.6 |
| 20260510050621 | 72 | 121 | 0.0 | 0.0 | 0.00 | 0.00 | 0.00 | 78 | 1013.6 |
| 20260510050118 | 72 | 138 | 0.0 | 0.0 | 0.00 | 0.00 | 0.00 | 78 | 1013.6 |
| 20260510045615 | 72 | 137 | 0.0 | 0.0 | 0.00 | 0.01 | 0.01 | 77 | 1013.6 |
| 20260510045111 | 72 | 130 | 0.0 | 0.0 | 0.00 | 0.01 | 0.01 | 77 | 1013.6 |
| 20260510044608 | 72 | 130 | 0.0 | 0.0 | 0.00 | 0.01 | 0.01 | 78 | 1013.3 |
| 20260510044105 | 72 | 131 | 0.0 | 0.0 | 0.00 | 0.01 | 0.01 | 77 | 1013.3 |
| 20260510043601 | 73 | 134 | 0.0 | 0.0 | 0.00 | 0.01 | 0.01 | 77 | 1013.3 |
| 20260510043057 | 73 | 131 | 0.0 | 0.0 | 0.00 | 0.01 | 0.01 | 77 | 1013.3 |
| 20260510042555 | 73 | 119 | 0.0 | 0.0 | 0.00 | 0.01 | 0.01 | 77 | 1013.3 |
| 20260510042051 | 73 | 121 | 0.0 | 0.0 | 0.00 | 0.01 | 0.01 | 77 | 1013.3 |
| 20260510041548 | 73 | 110 | 0.0 | 0.0 | 0.00 | 0.01 | 0.01 | 76 | 1013.3 |
| 20260510041046 | 73 | 111 | 0.0 | 0.0 | 0.00 | 0.01 | 0.01 | 76 | 1013.3 |
| 20260510040542 | 73 | 95 | 0.0 | 0.0 | 0.00 | 0.01 | 0.01 | 76 | 1013.0 |
| 20260510040038 | 73 | 130 | 0.0 | 0.0 | 0.00 | 0.01 | 0.01 | 75 | 1013.3 |
| 20260510035534 | 73 | 119 | 0.0 | 0.0 | 0.00 | 0.01 | 0.01 | 74 | 1013.3 |
| 20260510035034 | 74 | 122 | 0.0 | 0.9 | 0.00 | 0.01 | 0.01 | 74 | 1013.3 |
| 20260510034533 | 74 | 136 | 0.0 | 0.9 | 0.00 | 0.01 | 0.01 | 73 | 1013.0 |
| 20260510034029 | 74 | 183 | 0.0 | 0.9 | 0.00 | 0.01 | 0.01 | 73 | 1013.0 |
| 20260510033525 | 74 | 158 | 0.0 | 0.9 | 0.00 | 0.01 | 0.01 | 73 | 1013.0 |
| 20260510033023 | 74 | 117 | 0.0 | 0.0 | 0.00 | 0.01 | 0.01 | 74 | 1013.0 |
| 20260510032519 | 74 | 129 | 0.0 | 0.0 | 0.00 | 0.01 | 0.01 | 74 | 1013.0 |
| 20260510032015 | 74 | 131 | 0.0 | 0.9 | 0.00 | 0.01 | 0.01 | 73 | 1013.0 |
| 20260510031510 | 74 | 137 | 0.0 | 0.0 | 0.00 | 0.01 | 0.01 | 73 | 1013.0 |
| 20260510031006 | 74 | 128 | 0.0 | 0.0 | 0.00 | 0.01 | 0.01 | 72 | 1013.0 |
| 20260510030502 | 74 | 109 | 0.0 | 0.0 | 0.00 | 0.01 | 0.01 | 72 | 1013.0 |
| 20260510025959 | 75 | 126 | 0.0 | 0.0 | 0.00 | 0.01 | 0.01 | 71 | 1013.0 |
| 20260510025456 | 75 | 128 | 0.0 | 0.0 | 0.00 | 0.01 | 0.01 | 70 | 1013.0 |
| 20260510024954 | 76 | 130 | 0.0 | 0.0 | 0.00 | 0.01 | 0.01 | 70 | 1012.6 |
| 20260510024450 | 76 | 125 | 0.0 | 0.9 | 0.00 | 0.01 | 0.01 | 69 | 1013.0 |
| 20260510023946 | 76 | 139 | 0.0 | 0.9 | 0.00 | 0.01 | 0.01 | 68 | 1012.6 |
| 20260510023443 | 76 | 147 | 1.7 | 1.7 | 0.00 | 0.01 | 0.01 | 67 | 1012.6 |
| 20260510022939 | 77 | 126 | 0.0 | 0.0 | 0.00 | 0.01 | 0.01 | 66 | 1012.6 |
| 20260510022438 | 77 | 118 | 0.0 | 0.0 | 0.00 | 0.01 | 0.01 | 66 | 1012.6 |
| 20260510021938 | 78 | 132 | 0.0 | 0.9 | 0.00 | 0.01 | 0.01 | 65 | 1012.3 |
| 20260510021436 | 78 | 136 | 0.0 | 1.7 | 0.00 | 0.01 | 0.01 | 65 | 1012.3 |
| 20260510020932 | 78 | 125 | 0.0 | 1.7 | 0.00 | 0.01 | 0.01 | 65 | 1012.3 |
| 20260510020427 | 78 | 136 | 0.9 | 0.9 | 0.00 | 0.01 | 0.01 | 64 | 1011.9 |
| 20260510015923 | 78 | 129 | 0.9 | 0.9 | 0.00 | 0.01 | 0.01 | 64 | 1012.3 |
| 20260510015419 | 78 | 127 | 0.0 | 0.9 | 0.00 | 0.01 | 0.01 | 64 | 1011.9 |
| 20260510014914 | 79 | 125 | 0.0 | 1.7 | 0.00 | 0.01 | 0.01 | 64 | 1011.9 |
| 20260510014412 | 79 | 127 | 0.9 | 1.7 | 0.00 | 0.01 | 0.01 | 64 | 1011.9 |
| 20260510013908 | 79 | 116 | 0.0 | 0.9 | 0.00 | 0.01 | 0.01 | 63 | 1011.9 |
| 20260510013403 | 80 | 159 | 0.9 | 1.7 | 0.00 | 0.01 | 0.01 | 63 | 1011.6 |
| 20260510012858 | 80 | 145 | 0.0 | 0.9 | 0.00 | 0.01 | 0.01 | 63 | 1011.6 |
| 20260510012354 | 80 | 133 | 0.9 | 0.9 | 0.00 | 0.01 | 0.01 | 62 | 1011.6 |
| 20260510011848 | 80 | 132 | 0.0 | 0.0 | 0.00 | 0.01 | 0.01 | 63 | 1011.2 |
| 20260510011344 | 81 | 109 | 0.0 | 0.0 | 0.00 | 0.01 | 0.01 | 62 | 1011.2 |
| 20260510010840 | 82 | 101 | 0.0 | 0.9 | 0.00 | 0.01 | 0.01 | 61 | 1011.2 |
| 20260510010338 | 82 | 102 | 0.0 | 0.9 | 0.00 | 0.01 | 0.01 | 60 | 1011.2 |
| 20260510005834 | 83 | 34 | 0.0 | 0.9 | 0.00 | 0.01 | 0.01 | 59 | 1011.2 |
| 20260510005331 | 83 | 103 | 0.9 | 0.9 | 0.00 | 0.01 | 0.01 | 58 | 1010.8 |
| 20260510004828 | 84 | 138 | 2.6 | 3.5 | 0.00 | 0.01 | 0.01 | 56 | 1010.8 |
| 20260510004326 | 84 | 223 | 0.9 | 1.7 | 0.00 | 0.01 | 0.01 | 56 | 1010.8 |
| 20260510003823 | 84 | 132 | 0.0 | 1.7 | 0.00 | 0.01 | 0.01 | 56 | 1010.8 |
| 20260510003320 | 84 | 193 | 0.0 | 1.7 | 0.00 | 0.01 | 0.01 | 55 | 1010.8 |
| 20260510002819 | 84 | 153 | 0.9 | 1.7 | 0.00 | 0.01 | 0.01 | 55 | 1010.5 |
| 20260510002316 | 84 | 284 | 1.7 | 1.7 | 0.00 | 0.01 | 0.01 | 55 | 1010.5 |
| 20260510001813 | 85 | 140 | 0.9 | 2.6 | 0.00 | 0.01 | 0.01 | 55 | 1010.5 |
| 20260510001311 | 85 | 180 | 1.7 | 1.7 | 0.00 | 0.01 | 0.01 | 54 | 1010.5 |
| 20260510000806 | 86 | 161 | 0.9 | 1.7 | 0.00 | 0.01 | 0.01 | 53 | 1010.5 |
| 20260510000305 | 87 | 158 | 0.9 | 2.6 | 0.00 | 0.01 | 0.01 | 52 | 1010.5 |
| 20260509235801 | 88 | 146 | 0.9 | 6.1 | 0.00 | 0.01 | 0.01 | 49 | 1010.8 |
| 20260509235258 | 90 | 255 | 1.7 | 2.6 | 0.00 | 0.01 | 0.01 | 46 | 1010.5 |
| 20260509234753 | 91 | 104 | 0.9 | 0.9 | 0.00 | 0.01 | 0.01 | 42 | 1010.8 |
| 20260509234250 | 92 | 120 | 0.0 | 0.9 | 0.00 | 0.01 | 0.01 | 39 | 1010.5 |
| 20260509233749 | 93 | 216 | 0.9 | 0.9 | 0.00 | 0.01 | 0.01 | 38 | 1010.5 |
| 20260509233246 | 93 | 285 | 0.9 | 0.9 | 0.00 | 0.01 | 0.01 | 38 | 1010.5 |
| 20260509232742 | 94 | 229 | 0.9 | 1.7 | 0.00 | 0.01 | 0.01 | 38 | 1010.5 |
| 20260509232239 | 93 | 229 | 0.0 | 0.9 | 0.00 | 0.01 | 0.01 | 39 | 1010.5 |
| 20260509231735 | 93 | 183 | 0.0 | 0.9 | 0.00 | 0.01 | 0.01 | 40 | 1010.8 |
| 20260509231233 | 93 | 44 | 0.9 | 0.9 | 0.00 | 0.01 | 0.01 | 38 | 1010.5 |
| 20260509230730 | 93 | 74 | 0.0 | 0.9 | 0.00 | 0.01 | 0.01 | 38 | 1010.5 |
| 20260509230227 | 93 | 215 | 0.9 | 0.9 | 0.00 | 0.01 | 0.01 | 40 | 1010.5 |
| 20260509225722 | 93 | 109 | 0.0 | 0.9 | 0.00 | 0.01 | 0.01 | 41 | 1010.5 |
| 20260509225218 | 94 | 326 | 0.9 | 0.9 | 0.00 | 0.01 | 0.01 | 37 | 1010.5 |
| 20260509224714 | 93 | 105 | 0.0 | 0.9 | 0.00 | 0.01 | 0.01 | 41 | 1010.5 |
| 20260509224211 | 94 | 240 | 0.0 | 0.9 | 0.00 | 0.01 | 0.01 | 40 | 1010.5 |
| 20260509223708 | 94 | 103 | 0.9 | 1.7 | 0.00 | 0.01 | 0.01 | 37 | 1010.5 |
| 20260509223205 | 94 | 352 | 0.9 | 0.9 | 0.00 | 0.01 | 0.01 | 38 | 1010.5 |
| 20260509222702 | 94 | 278 | 0.0 | 0.9 | 0.00 | 0.01 | 0.01 | 41 | 1010.5 |
| 20260509222157 | 94 | 199 | 0.9 | 2.6 | 0.00 | 0.01 | 0.01 | 40 | 1010.5 |
| 20260509221648 | 93 | 134 | 0.0 | 0.9 | 0.00 | 0.01 | 0.01 | 39 | 1010.5 |
| 20260509221144 | 92 | 259 | 0.9 | 1.7 | 0.00 | 0.01 | 0.01 | 42 | 1010.5 |
| 20260509220640 | 91 | 200 | 1.7 | 2.6 | 0.00 | 0.01 | 0.01 | 40 | 1010.8 |
| 20260509220136 | 90 | 112 | 0.9 | 0.9 | 0.00 | 0.01 | 0.01 | 44 | 1010.8 |
| 20260509215632 | 91 | 156 | 0.0 | 0.9 | 0.00 | 0.01 | 0.01 | 42 | 1010.8 |
| 20260509215129 | 91 | 216 | 0.9 | 1.7 | 0.00 | 0.01 | 0.01 | 41 | 1010.8 |
| 20260509214626 | 89 | 11 | 0.9 | 1.7 | 0.00 | 0.01 | 0.01 | 45 | 1010.8 |
| 20260509214123 | 89 | 93 | 0.9 | 1.7 | 0.00 | 0.01 | 0.01 | 44 | 1010.5 |
| 20260509213619 | 90 | 46 | 0.9 | 1.7 | 0.00 | 0.01 | 0.01 | 43 | 1010.8 |
| 20260509213116 | 92 | 69 | 0.9 | 1.7 | 0.00 | 0.01 | 0.01 | 42 | 1010.8 |
| 20260509212613 | 92 | 258 | 1.7 | 1.7 | 0.00 | 0.01 | 0.01 | 40 | 1010.8 |
| 20260509212110 | 94 | 326 | 1.7 | 2.6 | 0.00 | 0.01 | 0.01 | 38 | 1011.2 |
| 20260509211606 | 94 | 196 | 0.0 | 2.6 | 0.00 | 0.01 | 0.01 | 39 | 1011.2 |
| 20260509211103 | 94 | 111 | 1.7 | 2.6 | 0.00 | 0.01 | 0.01 | 38 | 1010.8 |
| 20260509210559 | 93 | 247 | 0.9 | 2.6 | 0.00 | 0.01 | 0.01 | 40 | 1011.2 |
| 20260509210056 | 94 | 124 | 0.9 | 1.7 | 0.00 | 0.01 | 0.01 | 39 | 1011.2 |
| 20260509205550 | 93 | 19 | 0.9 | 2.6 | 0.00 | 0.01 | 0.01 | 42 | 1011.2 |
| 20260509205045 | 93 | 24 | 1.7 | 1.7 | 0.00 | 0.01 | 0.01 | 40 | 1011.2 |
| 20260509204542 | 92 | 250 | 2.6 | 2.6 | 0.00 | 0.01 | 0.01 | 39 | 1011.2 |
| 20260509204038 | 91 | 214 | 0.9 | 2.6 | 0.00 | 0.01 | 0.01 | 44 | 1011.6 |
| 20260509203534 | 91 | 225 | 0.9 | 2.6 | 0.00 | 0.01 | 0.01 | 48 | 1011.6 |
| 20260509203033 | 91 | 4 | 1.7 | 1.7 | 0.00 | 0.01 | 0.01 | 43 | 1011.6 |
| 20260509202527 | 91 | 123 | 0.9 | 1.7 | 0.00 | 0.01 | 0.01 | 45 | 1011.6 |
| 20260509202023 | 91 | 224 | 2.6 | 5.2 | 0.00 | 0.01 | 0.01 | 44 | 1011.9 |
| 20260509201518 | 90 | 355 | 0.9 | 1.7 | 0.00 | 0.01 | 0.01 | 45 | 1011.6 |
| 20260509201016 | 90 | 279 | 0.9 | 3.5 | 0.00 | 0.01 | 0.01 | 45 | 1011.9 |
| 20260509200516 | 90 | 314 | 0.9 | 1.7 | 0.00 | 0.01 | 0.01 | 45 | 1011.9 |
| 20260509200013 | 90 | 159 | 0.0 | 1.7 | 0.00 | 0.01 | 0.01 | 47 | 1012.3 |
| 20260509195508 | 89 | 271 | 1.7 | 2.6 | 0.00 | 0.01 | 0.01 | 47 | 1012.3 |
| 20260509195008 | 88 | 225 | 0.9 | 1.7 | 0.00 | 0.01 | 0.01 | 47 | 1011.9 |
| 20260509194504 | 87 | 178 | 0.0 | 0.9 | 0.00 | 0.01 | 0.01 | 50 | 1012.6 |
| 20260509194001 | 88 | 104 | 0.9 | 0.9 | 0.00 | 0.01 | 0.01 | 50 | 1012.6 |
| 20260509193500 | 88 | 286 | 0.9 | 0.9 | 0.00 | 0.01 | 0.01 | 46 | 1012.6 |
| 20260509192957 | 89 | 14 | 0.9 | 1.7 | 0.00 | 0.01 | 0.01 | 46 | 1012.6 |
| 20260509192454 | 90 | 225 | 1.7 | 6.1 | 0.00 | 0.01 | 0.01 | 46 | 1013.0 |
| 20260509191948 | 89 | 2 | 0.9 | 3.5 | 0.00 | 0.01 | 0.01 | 48 | 1012.6 |
| 20260509191444 | 88 | 227 | 0.0 | 2.6 | 0.00 | 0.01 | 0.01 | 52 | 1013.0 |
| 20260509190940 | 89 | 141 | 0.9 | 1.7 | 0.00 | 0.01 | 0.01 | 49 | 1012.6 |
| 20260509190437 | 88 | 293 | 0.9 | 5.2 | 0.00 | 0.01 | 0.01 | 50 | 1013.0 |
| 20260509185935 | 87 | 299 | 3.5 | 6.1 | 0.00 | 0.01 | 0.01 | 51 | 1013.0 |
| 20260509185432 | 87 | 291 | 0.9 | 5.2 | 0.00 | 0.01 | 0.01 | 51 | 1013.0 |
| 20260509184929 | 88 | 249 | 0.9 | 1.7 | 0.00 | 0.01 | 0.01 | 55 | 1013.0 |
| 20260509184427 | 89 | 144 | 0.9 | 1.7 | 0.00 | 0.01 | 0.01 | 51 | 1013.0 |
| 20260509183923 | 88 | 88 | 0.9 | 6.1 | 0.00 | 0.01 | 0.01 | 52 | 1013.0 |
| 20260509183417 | 88 | 173 | 0.9 | 3.5 | 0.00 | 0.01 | 0.01 | 54 | 1013.0 |
| 20260509182914 | 87 | 144 | 0.9 | 1.7 | 0.00 | 0.01 | 0.01 | 57 | 1013.0 |
| 20260509182411 | 86 | 250 | 1.7 | 2.6 | 0.00 | 0.01 | 0.01 | 56 | 1013.3 |
| 20260509181908 | 86 | 305 | 0.9 | 2.6 | 0.00 | 0.01 | 0.01 | 58 | 1013.3 |
| 20260509181406 | 85 | 35 | 0.9 | 0.9 | 0.00 | 0.01 | 0.01 | 60 | 1013.3 |
| 20260509180903 | 84 | 18 | 1.7 | 1.7 | 0.00 | 0.01 | 0.01 | 59 | 1013.3 |
| 20260509180358 | 84 | 314 | 1.7 | 2.6 | 0.00 | 0.01 | 0.01 | 58 | 1013.3 |
| 20260509175855 | 84 | 189 | 0.9 | 5.2 | 0.00 | 0.01 | 0.01 | 60 | 1013.6 |
| 20260509175351 | 85 | 172 | 0.9 | 1.7 | 0.00 | 0.01 | 0.01 | 58 | 1013.3 |
| 20260509174848 | 83 | 88 | 0.0 | 1.7 | 0.00 | 0.01 | 0.01 | 64 | 1013.6 |
| 20260509174344 | 82 | 91 | 0.9 | 1.7 | 0.00 | 0.01 | 0.01 | 66 | 1013.6 |
| 20260509173840 | 83 | 284 | 0.0 | 1.7 | 0.00 | 0.01 | 0.01 | 65 | 1013.6 |
| 20260509173335 | 84 | 40 | 0.9 | 1.7 | 0.00 | 0.01 | 0.01 | 64 | 1013.6 |
| 20260509172831 | 85 | 19 | 0.9 | 1.7 | 0.00 | 0.01 | 0.01 | 62 | 1013.6 |
| 20260509172328 | 85 | 278 | 0.0 | 0.9 | 0.00 | 0.01 | 0.01 | 61 | 1014.1 |
| 20260509171824 | 84 | 187 | 0.9 | 1.7 | 0.00 | 0.01 | 0.01 | 65 | 1014.1 |
| 20260509171320 | 83 | 93 | 0.0 | 0.9 | 0.00 | 0.01 | 0.01 | 68 | 1014.1 |
| 20260509170817 | 84 | 34 | 0.9 | 3.5 | 0.00 | 0.01 | 0.01 | 68 | 1014.1 |
| 20260509170312 | 84 | 293 | 1.7 | 2.6 | 0.00 | 0.01 | 0.01 | 68 | 1014.1 |
| 20260509165812 | 85 | 150 | 0.9 | 2.6 | 0.00 | 0.01 | 0.01 | 65 | 1014.1 |
| 20260509165307 | 84 | 123 | 0.9 | 1.7 | 0.00 | 0.01 | 0.01 | 66 | 1014.1 |
| 20260509164803 | 83 | 229 | 1.7 | 2.6 | 0.00 | 0.01 | 0.01 | 68 | 1014.1 |
| 20260509164300 | 82 | 40 | 0.0 | 1.7 | 0.00 | 0.01 | 0.01 | 72 | 1014.1 |
| 20260509163756 | 83 | 309 | 0.9 | 1.7 | 0.00 | 0.01 | 0.01 | 69 | 1014.1 |
| 20260509163253 | 83 | 196 | 1.7 | 1.7 | 0.00 | 0.01 | 0.01 | 68 | 1014.4 |
| 20260509162752 | 82 | 82 | 0.0 | 0.9 | 0.00 | 0.01 | 0.01 | 72 | 1014.4 |
| 20260509162245 | 82 | 221 | 0.0 | 1.7 | 0.00 | 0.01 | 0.01 | 70 | 1014.8 |
| 20260509161742 | 82 | 226 | 0.9 | 1.7 | 0.00 | 0.01 | 0.01 | 71 | 1014.8 |
| 20260509161238 | 80 | 56 | 0.0 | 0.9 | 0.00 | 0.01 | 0.01 | 77 | 1014.4 |
| 20260509160733 | 78 | 344 | 0.9 | 1.7 | 0.00 | 0.01 | 0.01 | 77 | 1014.4 |
| 20260509160230 | 78 | 98 | 0.0 | 2.6 | 0.00 | 0.01 | 0.01 | 80 | 1014.4 |
| 20260509155724 | 79 | 127 | 0.0 | 0.9 | 0.00 | 0.01 | 0.01 | 78 | 1014.4 |
| 20260509155221 | 79 | 119 | 0.0 | 0.9 | 0.00 | 0.01 | 0.01 | 78 | 1014.4 |
| 20260509154717 | 78 | 359 | 0.9 | 1.7 | 0.00 | 0.01 | 0.01 | 84 | 1014.4 |
| 20260509154215 | 77 | 107 | 1.7 | 2.6 | 0.00 | 0.01 | 0.01 | 83 | 1014.1 |
| 20260509153712 | 76 | 161 | 0.0 | 1.7 | 0.00 | 0.01 | 0.01 | 86 | 1014.4 |
| 20260509153208 | 75 | 135 | 0.0 | 0.9 | 0.00 | 0.01 | 0.01 | 89 | 1014.4 |
| 20260509152704 | 74 | 28 | 0.0 | 0.9 | 0.00 | 0.01 | 0.01 | 91 | 1014.4 |
| 20260509152201 | 74 | 30 | 0.9 | 1.7 | 0.00 | 0.01 | 0.01 | 91 | 1014.1 |
| 20260509151658 | 74 | 141 | 0.9 | 1.7 | 0.00 | 0.01 | 0.01 | 90 | 1014.8 |
| 20260509151155 | 73 | 107 | 0.9 | 2.6 | 0.00 | 0.01 | 0.01 | 92 | 1014.4 |
| 20260509150653 | 73 | 161 | 0.0 | 3.5 | 0.00 | 0.01 | 0.01 | 93 | 1014.1 |
| 20260509150151 | 73 | 124 | 0.0 | 0.9 | 0.00 | 0.01 | 0.01 | 94 | 1014.1 |
| 20260509145647 | 73 | 116 | 0.0 | 1.7 | 0.00 | 0.01 | 0.01 | 95 | 1013.6 |
| 20260509145142 | 72 | 180 | 0.9 | 2.6 | 0.00 | 0.01 | 0.01 | 96 | 1014.1 |
| 20260509144639 | 72 | 204 | 0.9 | 1.7 | 0.00 | 0.01 | 0.01 | 96 | 1014.1 |
| 20260509144136 | 72 | 164 | 0.0 | 0.9 | 0.00 | 0.01 | 0.01 | 97 | 1014.4 |
| 20260509143633 | 72 | 125 | 0.0 | 0.0 | 0.00 | 0.01 | 0.01 | 97 | 1014.4 |
| 20260509143131 | 71 | 112 | 0.0 | 0.9 | 0.00 | 0.01 | 0.01 | 97 | 1014.4 |
| 20260509142626 | 71 | 118 | 0.0 | 0.0 | 0.00 | 0.01 | 0.01 | 97 | 1014.1 |
| 20260509142123 | 71 | 80 | 0.0 | 0.9 | 0.00 | 0.01 | 0.01 | 97 | 1014.4 |
| 20260509141619 | 71 | 99 | 0.0 | 0.9 | 0.00 | 0.01 | 0.01 | 98 | 1014.1 |
| 20260509141115 | 71 | 109 | 0.0 | 0.0 | 0.00 | 0.01 | 0.01 | 98 | 1014.1 |
| 20260509140612 | 71 | 77 | 0.0 | 0.9 | 0.00 | 0.01 | 0.01 | 98 | 1014.1 |
| 20260509140110 | 71 | 111 | 0.9 | 0.9 | 0.00 | 0.01 | 0.01 | 98 | 1013.6 |
| 20260509135607 | 71 | 141 | 0.9 | 1.7 | 0.00 | 0.01 | 0.01 | 98 | 1014.1 |
| 20260509135105 | 71 | 177 | 0.9 | 0.9 | 0.00 | 0.01 | 0.01 | 98 | 1014.1 |
| 20260509134601 | 71 | 106 | 0.0 | 0.0 | 0.00 | 0.01 | 0.01 | 98 | 1013.6 |
| 20260509134059 | 71 | 19 | 0.0 | 0.9 | 0.00 | 0.01 | 0.01 | 98 | 1013.6 |
| 20260509133556 | 71 | 53 | 0.9 | 1.7 | 0.00 | 0.01 | 0.01 | 98 | 1014.1 |
| 20260509133053 | 71 | 64 | 0.0 | 0.9 | 0.00 | 0.01 | 0.01 | 98 | 1013.6 |
| 20260509132551 | 71 | 117 | 0.0 | 0.0 | 0.00 | 0.01 | 0.01 | 98 | 1013.6 |
| 20260509132049 | 71 | 87 | 0.0 | 0.9 | 0.00 | 0.01 | 0.01 | 98 | 1014.1 |
| 20260509131545 | 71 | 164 | 0.0 | 0.9 | 0.00 | 0.01 | 0.01 | 98 | 1014.1 |
| 20260509131042 | 71 | 191 | 0.9 | 0.9 | 0.00 | 0.01 | 0.01 | 98 | 1013.6 |
| 20260509130537 | 70 | 49 | 0.0 | 0.9 | 0.00 | 0.01 | 0.01 | 98 | 1014.1 |
| 20260509130035 | 70 | 100 | 0.0 | 0.9 | 0.00 | 0.01 | 0.01 | 98 | 1013.6 |
| 20260509125531 | 70 | 92 | 0.0 | 0.9 | 0.00 | 0.01 | 0.01 | 98 | 1013.6 |
| 20260509125028 | 70 | 76 | 0.0 | 0.9 | 0.00 | 0.01 | 0.01 | 98 | 1013.6 |
| 20260509124524 | 70 | 84 | 0.0 | 0.9 | 0.00 | 0.01 | 0.01 | 98 | 1014.1 |
| 20260509124022 | 70 | 80 | 0.0 | 1.7 | 0.00 | 0.01 | 0.01 | 98 | 1014.1 |
| 20260509123520 | 70 | 78 | 0.0 | 0.9 | 0.00 | 0.01 | 0.01 | 98 | 1014.4 |
| 20260509123016 | 70 | 80 | 0.0 | 0.9 | 0.00 | 0.01 | 0.01 | 98 | 1014.1 |
| 20260509122512 | 70 | 69 | 0.9 | 0.9 | 0.05 | 0.01 | 0.01 | 98 | 1013.6 |
| 20260509122009 | 70 | 72 | 0.0 | 1.7 | 0.05 | 0.01 | 0.01 | 98 | 1013.6 |
| 20260509121506 | 70 | 68 | 0.9 | 1.7 | 0.00 | 0.00 | 0.00 | 98 | 1013.6 |
| 20260509121004 | 70 | 62 | 0.9 | 0.9 | 0.00 | 0.00 | 0.00 | 98 | 1014.1 |
| 20260509120502 | 70 | 84 | 0.0 | 0.9 | 0.00 | 0.00 | 0.00 | 98 | 1013.6 |
| 20260509115959 | 70 | 47 | 0.9 | 3.5 | 0.00 | 0.00 | 0.00 | 98 | 1013.6 |
| 20260509115456 | 70 | 33 | 0.9 | 1.7 | 0.00 | 0.00 | 0.00 | 98 | 1014.1 |
| 20260509114954 | 70 | 68 | 0.0 | 0.9 | 0.00 | 0.00 | 0.00 | 98 | 1013.6 |
| 20260509114452 | 70 | 109 | 0.0 | 0.0 | 0.00 | 0.00 | 0.00 | 98 | 1013.6 |
| 20260509113951 | 70 | 108 | 0.0 | 0.0 | 0.00 | 0.00 | 0.00 | 98 | 1014.1 |
| 20260509113448 | 70 | 59 | 0.9 | 1.7 | 0.00 | 0.00 | 0.00 | 98 | 1014.4 |
| 20260509112945 | 70 | 65 | 0.9 | 1.7 | 0.00 | 0.00 | 0.00 | 98 | 1014.1 |
| 20260509112442 | 70 | 88 | 0.9 | 1.7 | 0.00 | 0.00 | 0.00 | 98 | 1014.1 |
| 20260509111938 | 70 | 34 | 1.7 | 3.5 | 0.00 | 0.00 | 0.00 | 98 | 1014.1 |
| 20260509111437 | 70 | 39 | 0.9 | 3.5 | 0.00 | 0.00 | 0.00 | 98 | 1013.6 |
| 20260509110934 | 70 | 53 | 1.7 | 1.7 | 0.00 | 0.00 | 0.00 | 98 | 1013.6 |
| 20260509110429 | 70 | 66 | 0.0 | 0.9 | 0.00 | 0.00 | 0.00 | 98 | 1013.3 |
| 20260509105928 | 70 | 42 | 0.9 | 1.7 | 0.00 | 0.00 | 0.00 | 98 | 1013.3 |
| 20260509105426 | 70 | 110 | 0.0 | 0.0 | 0.00 | 0.00 | 0.00 | 98 | 1013.6 |
| 20260509104923 | 70 | 102 | 0.0 | 0.9 | 0.00 | 0.00 | 0.00 | 98 | 1013.3 |
| 20260509104419 | 70 | 96 | 0.0 | 0.0 | 0.00 | 0.00 | 0.00 | 98 | 1013.3 |
| 20260509103917 | 70 | 84 | 0.0 | 0.9 | 0.00 | 0.00 | 0.00 | 98 | 1013.3 |
| 20260509103414 | 70 | 71 | 0.9 | 1.7 | 0.00 | 0.00 | 0.00 | 98 | 1013.3 |
| 20260509102912 | 70 | 135 | 0.0 | 0.0 | 0.00 | 0.00 | 0.00 | 97 | 1013.3 |
| 20260509102409 | 70 | 97 | 0.0 | 0.9 | 0.00 | 0.00 | 0.00 | 97 | 1013.3 |
| 20260509101905 | 70 | 77 | 0.0 | 0.9 | 0.00 | 0.00 | 0.00 | 97 | 1013.0 |
| 20260509101401 | 70 | 57 | 0.9 | 0.9 | 0.00 | 0.00 | 0.00 | 97 | 1013.3 |
| 20260509100859 | 70 | 37 | 0.9 | 0.9 | 0.00 | 0.00 | 0.00 | 97 | 1013.0 |
| 20260509100356 | 70 | 75 | 0.0 | 0.9 | 0.00 | 0.00 | 0.00 | 97 | 1013.0 |
| 20260509095853 | 70 | 96 | 0.0 | 0.9 | 0.00 | 0.00 | 0.00 | 97 | 1013.0 |
| 20260509095350 | 70 | 96 | 0.0 | 0.9 | 0.00 | 0.00 | 0.00 | 97 | 1013.0 |
| 20260509094847 | 70 | 48 | 0.0 | 0.9 | 0.00 | 0.00 | 0.00 | 97 | 1013.0 |
| 20260509094344 | 70 | 76 | 0.0 | 1.7 | 0.00 | 0.00 | 0.00 | 97 | 1012.6 |
| 20260509093842 | 70 | 92 | 0.0 | 0.9 | 0.00 | 0.00 | 0.00 | 97 | 1012.6 |
| 20260509093338 | 70 | 39 | 0.9 | 0.9 | 0.00 | 0.00 | 0.00 | 97 | 1012.6 |
| 20260509092837 | 70 | 58 | 0.0 | 0.9 | 0.00 | 0.00 | 0.00 | 97 | 1012.6 |
| 20260509092334 | 70 | 103 | 0.0 | 0.0 | 0.00 | 0.00 | 0.00 | 97 | 1012.6 |
| 20260509091832 | 70 | 90 | 0.0 | 0.9 | 0.00 | 0.00 | 0.00 | 97 | 1012.3 |
| 20260509091329 | 70 | 82 | 0.0 | 0.9 | 0.00 | 0.00 | 0.00 | 97 | 1012.3 |
| 20260509090826 | 70 | 46 | 0.9 | 0.9 | 0.00 | 0.00 | 0.00 | 97 | 1012.6 |
| 20260509090323 | 70 | 37 | 0.9 | 1.7 | 0.00 | 0.00 | 0.00 | 97 | 1012.6 |
| 20260509085821 | 70 | 103 | 0.0 | 0.0 | 0.00 | 0.00 | 0.00 | 97 | 1012.6 |
| 20260509085318 | 70 | 54 | 0.9 | 0.9 | 0.00 | 0.00 | 0.00 | 97 | 1012.6 |
| 20260509084814 | 70 | 100 | 0.0 | 0.0 | 0.00 | 0.00 | 0.00 | 97 | 1012.3 |
| 20260509084311 | 70 | 58 | 0.0 | 0.9 | 0.00 | 0.00 | 0.00 | 97 | 1012.6 |
| 20260509083809 | 70 | 101 | 0.0 | 0.0 | 0.00 | 0.00 | 0.00 | 97 | 1012.6 |
| 20260509083306 | 70 | 118 | 0.0 | 0.0 | 0.00 | 0.00 | 0.00 | 97 | 1012.6 |
| 20260509082802 | 70 | 108 | 0.0 | 0.0 | 0.00 | 0.00 | 0.00 | 97 | 1013.0 |
| 20260509082259 | 70 | 197 | 0.0 | 0.0 | 0.00 | 0.00 | 0.00 | 97 | 1013.0 |
| 20260509081756 | 70 | 139 | 0.0 | 0.0 | 0.00 | 0.00 | 0.00 | 97 | 1013.0 |
| 20260509081253 | 70 | 132 | 0.0 | 0.0 | 0.00 | 0.00 | 0.00 | 97 | 1013.0 |
| 20260509080751 | 70 | 148 | 0.0 | 0.0 | 0.00 | 0.00 | 0.00 | 97 | 1013.0 |
| 20260509080249 | 70 | 149 | 0.0 | 0.0 | 0.00 | 0.00 | 0.00 | 97 | 1013.0 |
| 20260509075747 | 70 | 128 | 0.0 | 0.0 | 0.00 | 0.00 | 0.00 | 97 | 1013.0 |
| 20260509075244 | 70 | 134 | 0.0 | 0.0 | 0.00 | 0.00 | 0.00 | 97 | 1012.6 |
| 20260509074741 | 70 | 162 | 0.0 | 0.9 | 0.00 | 0.00 | 0.00 | 97 | 1012.6 |
| 20260509074239 | 70 | 111 | 0.0 | 0.0 | 0.00 | 0.00 | 0.00 | 97 | 1012.6 |
| 20260509073734 | 70 | 141 | 0.0 | 0.9 | 0.00 | 0.00 | 0.00 | 97 | 1012.6 |
| 20260509073231 | 70 | 170 | 0.0 | 0.9 | 0.00 | 0.00 | 0.00 | 97 | 1012.3 |
| 20260509072727 | 70 | 140 | 0.0 | 0.0 | 0.00 | 0.00 | 0.00 | 97 | 1012.6 |
| 20260509072224 | 70 | 140 | 0.0 | 0.9 | 0.00 | 0.00 | 0.00 | 96 | 1012.6 |
| 20260509071721 | 70 | 119 | 0.0 | 0.9 | 0.00 | 0.00 | 0.00 | 96 | 1012.6 |
| 20260509071219 | 70 | 143 | 0.0 | 0.9 | 0.00 | 0.00 | 0.00 | 96 | 1012.3 |
| 20260509070715 | 70 | 97 | 0.9 | 1.7 | 0.00 | 0.00 | 0.00 | 96 | 1012.6 |
| 20260509070212 | 70 | 127 | 0.9 | 0.9 | 0.00 | 0.00 | 0.00 | 96 | 1012.6 |
| 20260509065708 | 70 | 130 | 0.9 | 0.9 | 0.00 | 0.00 | 0.00 | 96 | 1012.6 |
| 20260509065204 | 70 | 109 | 0.0 | 0.9 | 0.00 | 0.00 | 0.00 | 96 | 1013.0 |
| 20260509064701 | 70 | 185 | 0.0 | 0.9 | 0.00 | 0.00 | 0.00 | 96 | 1012.6 |
| 20260509064159 | 70 | 128 | 0.9 | 0.9 | 0.00 | 0.00 | 0.00 | 96 | 1012.6 |
| 20260509063656 | 70 | 196 | 0.9 | 0.9 | 0.00 | 0.00 | 0.00 | 96 | 1013.0 |
| 20260509063152 | 70 | 117 | 0.0 | 0.9 | 0.00 | 0.00 | 0.00 | 96 | 1013.0 |
| 20260509062649 | 70 | 191 | 0.9 | 2.6 | 0.00 | 0.00 | 0.00 | 96 | 1013.0 |
| 20260509062146 | 70 | 150 | 0.9 | 2.6 | 0.00 | 0.00 | 0.00 | 96 | 1013.0 |
| 20260509061643 | 70 | 188 | 0.0 | 1.7 | 0.00 | 0.00 | 0.00 | 96 | 1013.0 |